When you browse on this site, cookies collect data to enhance your experience and personalize the content and advertising you see.
Visit our Privacy Policy to learn more. By continuing to use the site, you agree to this use of cookies and data.
  • In Czech Republic
  • List of Countries
  • For 7 days
  • Water Temperature
  • Satellite Maps
  • Weather Map
  • Weather Widgets
  • user-avatar
    Login

    Hourly Weather Ali Bayramli

    Today, 24 June, Monday

    Time Temperature Precipitation Wind Pressure Humidity
    00:00 +29°C° 0 mm 2 mps 756 mmHg 56%
    01:00 +29°C° 0 mm 2 mps 756 mmHg 57%
    02:00 +29°C° 0 mm 2 mps 756 mmHg 57%
    03:00 +28°C° 0 mm 2 mps 756 mmHg 59%
    04:00 +29°C° 0 mm 1 mps 756 mmHg 57%
    05:00 +30°C° 0 mm 1 mps 756 mmHg 54%
    06:00 +30°C° 0 mm 1 mps 756 mmHg 52%
    07:00 +32°C° 0 mm 1 mps 756 mmHg 46%
    08:00 +34°C° 0 mm 2 mps 756 mmHg 41%
    09:00 +36°C° 0 mm 2 mps 756 mmHg 36%
    10:00 +38°C° 0 mm 3 mps 756 mmHg 31%
    11:00 +40°C° 0 mm 4 mps 756 mmHg 26%
    12:00 +42°C° 0 mm 5 mps 756 mmHg 21%
    13:00 +42°C° 0 mm 5 mps 755 mmHg 20%
    14:00 +42°C° 0 mm 6 mps 755 mmHg 18%
    15:00 +42°C° 0 mm 6 mps 755 mmHg 17%
    16:00 +41°C° 0 mm 6 mps 755 mmHg 18%
    17:00 +40°C° 0 mm 6 mps 755 mmHg 19%
    18:00 +39°C° 0 mm 5 mps 755 mmHg 20%
    19:00 +36°C° 0 mm 4 mps 755 mmHg 24%
    20:00 +34°C° 0 mm 3 mps 755 mmHg 27%
    21:00 +33°C° 0 mm 3 mps 756 mmHg 31%
    22:00 +31°C° 0 mm 3 mps 756 mmHg 31%
    23:00 +31°C° 0 mm 3 mps 756 mmHg 31%

    Tomorrow, 25 June, Tuesday

    Time Temperature Precipitation Wind Pressure Humidity
    00:00 +31°C° 0 mm 3 mps 756 mmHg 31%
    01:00 +30°C° 0 mm 2 mps 756 mmHg 31%
    02:00 +29°C° 0 mm 2 mps 755 mmHg 31%
    03:00 +29°C° 0 mm 1 mps 755 mmHg 31%
    04:00 +29°C° 0 mm 2 mps 755 mmHg 31%
    05:00 +30°C° 0 mm 2 mps 756 mmHg 31%
    06:00 +30°C° 0 mm 3 mps 756 mmHg 31%
    07:00 +34°C° 0 mm 3 mps 756 mmHg 27%
    08:00 +36°C° 0 mm 3 mps 756 mmHg 23%
    09:00 +38°C° 0 mm 3 mps 756 mmHg 19%
    10:00 +40°C° 0 mm 4 mps 756 mmHg 18%
    11:00 +41°C° 0 mm 5 mps 756 mmHg 16%
    12:00 +44°C° 0 mm 7 mps 756 mmHg 15%
    13:00 +44°C° 0 mm 7 mps 756 mmHg 15%
    14:00 +43°C° 0 mm 7 mps 756 mmHg 15%
    15:00 +43°C° 0 mm 8 mps 756 mmHg 15%
    16:00 +41°C° 0 mm 7 mps 756 mmHg 17%
    17:00 +40°C° 0 mm 7 mps 756 mmHg 19%
    18:00 +39°C° 0 mm 6 mps 755 mmHg 21%
    19:00 +37°C° 0 mm 5 mps 756 mmHg 25%
    20:00 +35°C° 0 mm 4 mps 756 mmHg 30%
    21:00 +33°C° 0 mm 3 mps 757 mmHg 34%
    22:00 +31°C° 0 mm 3 mps 756 mmHg 40%
    23:00 +30°C° 0 mm 2 mps 756 mmHg 46%

    Day after tomorrow, 26 June, Wednesday

    Time Temperature Precipitation Wind Pressure Humidity
    00:00 +29°C° 0 mm 2 mps 756 mmHg 51%
    01:00 +29°C° 0 mm 2 mps 756 mmHg 54%
    02:00 +28°C° 0 mm 2 mps 756 mmHg 56%
    03:00 +27°C° 0 mm 2 mps 756 mmHg 59%
    04:00 +28°C° 0 mm 2 mps 756 mmHg 56%
    05:00 +29°C° 0 mm 2 mps 756 mmHg 54%
    06:00 +29°C° 0 mm 3 mps 756 mmHg 52%
    07:00 +33°C° 0 mm 3 mps 757 mmHg 44%
    08:00 +35°C° 0 mm 3 mps 757 mmHg 36%
    09:00 +38°C° 0 mm 4 mps 757 mmHg 29%
    10:00 +40°C° 0 mm 5 mps 757 mmHg 27%
    11:00 +41°C° 0 mm 6 mps 757 mmHg 25%
    12:00 +43°C° 0 mm 7 mps 757 mmHg 23%
    13:00 +43°C° 0 mm 8 mps 757 mmHg 24%
    14:00 +43°C° 0 mm 9 mps 757 mmHg 25%
    15:00 +43°C° 0 mm 10 mps 756 mmHg 25%
    16:00 +40°C° 0 mm 10 mps 756 mmHg 29%
    17:00 +39°C° 0 mm 11 mps 756 mmHg 32%
    18:00 +37°C° 0 mm 11 mps 756 mmHg 35%
    19:00 +36°C° 0 mm 11 mps 756 mmHg 36%
    20:00 +34°C° 0 mm 10 mps 757 mmHg 37%
    21:00 +33°C° 0 mm 10 mps 757 mmHg 38%
    22:00 +32°C° 0 mm 9 mps 757 mmHg 39%
    23:00 +32°C° 0 mm 8 mps 757 mmHg 40%

    27 June, Thursday

    Time Temperature Precipitation Wind Pressure Humidity
    00:00 +30°C° 0 mm 7 mps 757 mmHg 41%
    01:00 +30°C° 0 mm 6 mps 757 mmHg 44%
    02:00 +29°C° 0 mm 5 mps 756 mmHg 46%
    03:00 +28°C° 0 mm 4 mps 756 mmHg 49%
    04:00 +28°C° 0 mm 4 mps 757 mmHg 49%
    05:00 +29°C° 0 mm 4 mps 757 mmHg 50%
    06:00 +29°C° 0 mm 4 mps 757 mmHg 50%
    07:00 +30°C° 0 mm 4 mps 757 mmHg 45%
    08:00 +32°C° 0 mm 5 mps 757 mmHg 39%
    09:00 +34°C° 0 mm 5 mps 757 mmHg 33%
    10:00 +35°C° 0 mm 6 mps 757 mmHg 30%
    11:00 +35°C° 0 mm 7 mps 756 mmHg 28%
    12:00 +37°C° 0 mm 8 mps 756 mmHg 25%
    13:00 +37°C° 0 mm 8 mps 756 mmHg 25%
    14:00 +37°C° 0 mm 8 mps 755 mmHg 24%
    15:00 +37°C° 0 mm 8 mps 755 mmHg 24%
    16:00 +35°C° 0 mm 8 mps 755 mmHg 26%
    17:00 +34°C° 0 mm 8 mps 755 mmHg 27%
    18:00 +33°C° 0 mm 7 mps 755 mmHg 29%
    19:00 +30°C° 0 mm 6 mps 755 mmHg 33%
    20:00 +29°C° 0 mm 5 mps 755 mmHg 37%
    21:00 +28°C° 0 mm 4 mps 755 mmHg 41%
    22:00 +27°C° 0 mm 3 mps 754 mmHg 44%
    23:00 +27°C° 0 mm 3 mps 754 mmHg 47%

    28 June, Friday

    Time Temperature Precipitation Wind Pressure Humidity
    00:00 +26°C° 0 mm 2 mps 754 mmHg 50%
    01:00 +26°C° 0 mm 2 mps 754 mmHg 51%
    02:00 +25°C° 0 mm 2 mps 753 mmHg 52%
    03:00 +25°C° 0 mm 2 mps 753 mmHg 54%
    04:00 +26°C° 0 mm 2 mps 753 mmHg 54%
    05:00 +26°C° 0 mm 2 mps 753 mmHg 54%
    06:00 +27°C° 0 mm 2 mps 752 mmHg 53%
    07:00 +28°C° 0 mm 1 mps 752 mmHg 46%
    08:00 +29°C° 0 mm 1 mps 752 mmHg 39%
    09:00 +31°C° 0 mm 1 mps 752 mmHg 31%
    10:00 +32°C° 0 mm 1 mps 751 mmHg 29%
    11:00 +33°C° 0 mm 1 mps 751 mmHg 26%
    12:00 +35°C° 0 mm 1 mps 750 mmHg 24%
    13:00 +36°C° 0 mm 2 mps 750 mmHg 23%
    14:00 +36°C° 0 mm 4 mps 749 mmHg 22%
    15:00 +37°C° 0 mm 5 mps 749 mmHg 21%
    16:00 +36°C° 0 mm 5 mps 749 mmHg 21%
    17:00 +35°C° 0 mm 5 mps 748 mmHg 22%
    18:00 +34°C° 0 mm 5 mps 748 mmHg 23%
    19:00 +33°C° 0 mm 4 mps 749 mmHg 26%
    20:00 +30°C° 0 mm 3 mps 749 mmHg 30%
    21:00 +29°C° 0 mm 2 mps 750 mmHg 33%
    22:00 +28°C° 0 mm 2 mps 749 mmHg 36%
    23:00 +28°C° 0 mm 2 mps 749 mmHg 39%

    29 June, Saturday

    Time Temperature Precipitation Wind Pressure Humidity
    00:00 +27°C° 0 mm 2 mps 749 mmHg 42%
    01:00 +27°C° 0 mm 1 mps 749 mmHg 42%
    02:00 +27°C° 0 mm 1 mps 749 mmHg 43%
    03:00 +26°C° 0 mm 1 mps 748 mmHg 43%
    04:00 +27°C° 0 mm 1 mps 749 mmHg 42%
    05:00 +28°C° 0 mm 1 mps 749 mmHg 41%
    06:00 +28°C° 0 mm 2 mps 749 mmHg 40%
    07:00 +30°C° 0 mm 1 mps 749 mmHg 37%
    08:00 +31°C° 0 mm 1 mps 749 mmHg 34%
    09:00 +33°C° 0 mm 1 mps 749 mmHg 30%
    10:00 +35°C° 0 mm 2 mps 749 mmHg 29%
    11:00 +36°C° 0 mm 2 mps 749 mmHg 27%
    12:00 +37°C° 0 mm 3 mps 748 mmHg 26%
    13:00 +37°C° 0 mm 4 mps 748 mmHg 26%
    14:00 +38°C° 0 mm 6 mps 748 mmHg 26%
    15:00 +39°C° 0 mm 7 mps 747 mmHg 26%
    16:00 +36°C° 0 mm 7 mps 747 mmHg 29%
    17:00 +35°C° 0 mm 8 mps 747 mmHg 32%
    18:00 +34°C° 0 mm 8 mps 747 mmHg 35%
    19:00 +33°C° 0 mm 7 mps 748 mmHg 38%
    20:00 +30°C° 0 mm 6 mps 748 mmHg 41%
    21:00 +29°C° 0 mm 5 mps 749 mmHg 44%
    22:00 +29°C° 0 mm 4 mps 749 mmHg 46%
    23:00 +28°C° 0 mm 4 mps 749 mmHg 48%
    Show more